EDT,Max TemperatureF,Mean TemperatureF,Min TemperatureF,Max Dew PointF,MeanDew PointF,Min DewpointF,Max Humidity, Mean Humidity, Min Humidity, Max Sea Level PressureIn, Mean Sea Level PressureIn, Min Sea Level PressureIn, Max VisibilityMiles, Mean VisibilityMiles, Min VisibilityMiles, Max Wind SpeedMPH, Mean Wind SpeedMPH, Max Gust SpeedMPH,PrecipitationIn, CloudCover, Events, WindDirDegrees
2012-7-1,82,70,59,61,59,57,93,66,44,29.89,29.84,29.77,10,10,10,15,5,25,0.00,0,,289
2012-7-2,82,70,57,61,58,55,97,68,41,29.97,29.94,29.90,10,10,10,20,6,25,0.00,2,,306
2012-7-3,84,70,57,65,59,52,93,67,34,29.99,29.90,29.79,10,10,10,9,2,,0.00,2,Rain,31
2012-7-4,89,78,69,69,67,65,90,74,49,29.82,29.78,29.71,10,10,8,15,5,18,0.00,4,,285
2012-7-5,82,74,63,68,62,57,90,68,51,29.92,29.85,29.76,10,10,9,15,4,,0.00,0,,310
2012-7-6,91,74,57,70,62,56,97,73,44,29.96,29.90,29.84,10,10,10,16,4,,0.00,0,,188
2012-7-7,78,71,64,68,65,63,93,80,62,29.90,29.86,29.84,10,10,7,12,4,20,0.04,2,Rain,276
2012-7-8,84,74,63,66,61,56,100,78,38,29.94,29.90,29.87,10,7,0,22,3,28,0.00,4,Fog,307
2012-7-9,80,67,55,57,51,46,90,62,31,30.02,29.99,29.94,10,10,10,14,4,,0.00,2,,324
2012-7-10,82,68,55,56,54,49,90,63,33,30.11,30.05,30.02,10,10,10,10,3,17,0.00,2,,40
2012-7-11,88,70,54,58,52,43,90,56,22,30.19,30.15,30.11,10,10,10,6,2,,0.00,0,,81
2012-7-12,91,74,57,61,56,52,83,57,27,30.19,30.14,30.09,10,10,9,12,2,,0.00,1,,7
2012-7-13,91,76,61,65,59,53,87,57,28,30.19,30.15,30.10,10,10,9,7,3,,0.00,1,,90
2012-7-14,91,78,66,65,62,59,90,63,35,30.19,30.13,30.05,10,10,7,8,3,,0.00,1,Thunderstorm,118
2012-7-15,80,74,68,73,69,63,96,82,66,30.10,30.01,29.92,10,8,2,9,4,,0.05,5,Rain,186
2012-7-16,86,75,64,70,66,63,100,84,46,29.93,29.89,29.82,10,6,0,18,4,24,0.00,5,Fog-Rain,313
2012-7-17,97,82,68,72,66,62,90,59,33,29.84,29.73,29.65,10,10,9,22,7,32,0.00,2,Rain-Thunderstorm,258
2012-7-18,84,74,64,73,65,57,91,71,41,29.95,29.85,29.75,10,10,8,12,3,,0.00,5,Rain-Thunderstorm,344
2012-7-19,82,68,57,57,53,50,90,59,36,30.01,29.98,29.95,10,10,10,10,4,,0.00,0,,17
2012-7-20,81,68,57,60,54,51,84,59,40,30.06,30.03,30.01,10,10,10,10,4,,0.00,2,,114
2012-7-21,84,74,63,61,57,48,87,66,28,30.12,30.07,30.01,10,10,10,8,4,,0.00,5,,64
2012-7-22,89,76,63,63,59,57,84,59,35,30.12,30.07,30.02,10,10,10,10,5,17,0.00,3,,143
2012-7-23,93,80,69,72,67,63,100,75,41,30.03,29.84,29.69,10,8,0,30,8,36,0.00,4,Fog-Rain-Thunderstorm,108
2012-7-24,82,71,60,70,66,50,100,83,45,29.86,29.72,29.68,10,7,0,17,5,25,0.00,5,Fog-Rain-Thunderstorm,320
2012-7-25,81,66,53,58,53,48,93,63,34,29.95,29.88,29.76,10,10,10,12,4,20,0.00,1,,303
2012-7-26,86,74,64,71,66,56,96,81,59,29.75,29.65,29.57,10,9,4,12,6,21,0.00,7,Rain-Thunderstorm,265
2012-7-27,81,74,66,70,67,62,96,85,54,29.91,29.75,29.65,10,8,2,8,5,,0.00,7,Rain,287
2012-7-28,79,72,64,70,66,62,96,85,66,29.99,29.95,29.92,10,9,2,10,2,,0.00,6,Rain,7
2012-7-29,84,74,63,66,62,54,100,80,35,30.04,30.00,29.97,10,7,0,12,2,,0.00,3,Fog,320
2012-7-30,87,73,59,64,59,55,96,65,36,30.09,30.04,29.98,10,10,10,8,3,,0.00,2,,137
2012-7-31,86,78,68,67,65,62,90,70,44,30.03,29.97,29.85,10,10,10,14,8,18,0.00,3,,124